User: anonymous   Login
Location: Invercargill
(46.4000°S, 168.3500°E)
Time: 01:02:44
(UTC+13:00)
Language:

FREGAT/IRIS - Orbit

View from above orbital plane
View from above orbital plane
View from above satellite
View from above satellite

Ground track
Ground track

The orbit data is extracted from the following two-line orbital elements,

1 35867U 09049C   19293.08526613  .00011245  00000-0  81518-4 0  9996
2 35867  96.9607 325.8095 0002852 161.3278 283.3850 15.73579602568042
Epoch (UTC): 20 October 2019 02:02:46
Eccentricity: 0.0002852
inclination: 96.9607°
perigee height: 347 km
apogee height: 350 km
right ascension of ascending node: 325.8095°
argument of perigee: 161.3278°
revolutions per day: 15.73579602
mean anomaly at epoch: 283.3850°
orbit number at epoch: 56804

The dashed part of the orbit path shows where the satellite is in the earth's shadow,  

DLR